Other Public Products
Issued by NWS Grand Forks, ND

Home | Current Version | Previous Version | Text Only | Print | Product List | Glossary On
Versions: 1 2 3 4 5 6 7 8 9 10 11 12 13 14 15 16 17 18 19 20 21 22 23 24 25 26 27 28 29 30 31 32 33 34 35 36 37 38 39 40 41 42 43 44 45 46 47 48 49 50
000
FPUS83 KFGF 302331
OPUFGF
PRAIRIE TO PINES WEATHER ROUNDUP
NATIONAL WEATHER SERVICE EASTERN NORTH DAKOTA/GRAND FORKS ND
600 PM CDT THU JUL 30 2015

 **SATELLITE DATA USED TO AUGMENT SKY COVER AT AUTOMATED STATIONS**
 *****  WEATHER ACROSS EASTERN NORTH DAKOTA  *****

CITY           SKY/WX    TMP DP  RH WIND       PRES   REMARKS
GRAND FORKS    MOSUNNY   82  52  35 NW14      29.97S
GRAND FORKS AF MOSUNNY   78  54  43 NW13      29.99S
GRAND CITY NWS   N/A     81 N/A N/A W22         N/A
BUXTON         NOT AVBL
DEVILS LAKE    SUNNY     79  52  38 NW22G28   30.02S
FARGO          SUNNY     83  53  35 NW16      30.01F
WAHPETON ARPT  PTCLDY    81  50  34 NW15G24   30.03S
$$

 *****  WEATHER ACROSS CENTRAL AND WESTERN NORTH DAKOTA  *****

CITY           SKY/WX    TMP DP  RH WIND       PRES   REMARKS
JAMESTOWN      SUNNY     81  52  36 NW14      30.07S
BISMARCK       SUNNY     84  45  25 NW16G22   30.13S
MINOT          SUNNY     80  45  28 NW21G28   30.11S
MINOT AFB      SUNNY     82  46  28 NW18G25   30.09S
GARRISON         N/A     80  50  34 NW17G23   30.13S
WILLISTON      MOSUNNY   85  43  22 N12       30.15S
DICKINSON      MOSUNNY   80  42  25 NW9       30.16S
HETTINGER      SUNNY     86  40  19 NW10G16   30.18S
$$

 *****  OTHER OBSERVATIONS NORTHEAST NORTH DAKOTA  *****

CITY           SKY/WX    TMP DP  RH WIND       PRES   REMARKS
WALHALLA       FAIR      77  50  38 MISG      29.97R
LANGDON        FAIR      75  48  38 NW21G30   30.02R
CAVALIER       FAIR      77  50  38 W22G29    29.96R
GRAFTON        FAIR      81  55  41 W22       29.97S
CANDO          FAIR      75  50  41 NW20G28   30.05R
FORT TOTTEN      N/A     79  54  41 NW9       29.95S
ROLLA          FAIR      72  48  43 NW18G26   30.07R
RUGBY          NOT AVBL
 ***** THE ABOVE OBSERVATIONS ARE NON NWS ARE NOT QUALITY
        CONTROLLED AND MAY MIS-REPORT RAIN FOR SNOW...
$$

 *****  OTHER OBSERVATIONS SOUTHEAST NORTH DAKOTA *****

CITY           SKY/WX    TMP DP  RH WIND       PRES   REMARKS
COOPERSTOWN    NOT AVBL
VALLEY CITY    FAIR      81  54  39 NW17      30.06S
OAKES            N/A     82  55  39 W14G24    30.07F
GWINNER        FAIR      82  55  39 W12       30.07S
SHEYENNE NWR     N/A     83  54  36 NW14      29.95S
BUFFALO        NOT AVBL
WYNDMERE       NOT AVBL
 ***** THE ABOVE OBSERVATIONS ARE NON NWS ARE NOT QUALITY
       CONTROLLED AND MAY MIS-REPORT RAIN FOR SNOW...
$$

  *****  WEATHER ACROSS NORTHERN MINNESOTA  *****

CITY           SKY/WX    TMP DP  RH WIND       PRES   REMARKS
FLAG ISLAND    MOSUNNY   72  52  49 W18G30    29.87R
WARROAD        MOSUNNY   75  61  60 W10       29.91S
ROSEAU         SUNNY     79  57  47 W15G22    29.92S
HALLOCK        MOSUNNY   79  50  36 NW12      29.93S
THF RVR FALLS  PTSUNNY   79  52  38 W16G26    29.96F
HALSTAD        NOT AVBL
FOSSTON        MOSUNNY   79  55  44 W14G20    29.99F
BAUDETTE       PTSUNNY   76  54  46 W17G25    29.90S
WASKISH        SUNNY     77  59  53 W14G22    29.93S
CROOKSTON      MOSUNNY   81  52  36 W20G25    29.98S
$$
  *****  WEATHER ACROSS CENTRAL AND WEST MINNESOTA  *****

CITY           SKY/WX    TMP DP  RH WIND       PRES   REMARKS
BEMIDJI        SUNNY     78  53  41 W17G24    29.98R
PARK RAPIDS    MOSUNNY   80  53  39 W21G28    30.01S
WADENA         MOSUNNY   77  55  47 W13G22    30.02S
DETROIT LAKES  SUNNY     79  52  38 NW16G24   30.04S
MOORHEAD       SUNNY     79  54  41 NW16G22   30.02S
FERGUS FALLS   SUNNY     81  57  44 W14       30.02S
ELBOW LAKE     FAIR      79  59  50 NW13      30.04S
MORRIS MN      SUNNY     82  61  47 NW9       30.03F
STAPLES        MOSUNNY   79  54  41 W16G24    30.01F
WHEATON        SUNNY     81  59  47 NW9       30.06S
$$
  *****  WEATHER ELSEWHERE ACROSS MINNESOTA  *****

CITY           SKY/WX    TMP DP  RH WIND       PRES   REMARKS
DULUTH         MOSUNNY   80  53  39 W16G28    29.93S
INTRNTL FALLS  MOSUNNY   78  53  41 W12G28    29.88R
ELY            SUNNY     75  54  46 W15G22    29.88S
CLOQUET        SUNNY     81  46  30 W14G23    29.94S
BRAINERD       MOSUNNY   81  54  39 W21G29    30.00S
HIBBING        SUNNY     79  50  36 W15G28    29.92F
ALEXANDRIA     SUNNY     80  57  45 W18       30.06F
SAINT CLOUD    MOSUNNY   81  56  42 W16G22    30.02F
MINNEAPOLIS    MOSUNNY   84  54  35 W18G24    30.02S
$$

  *****  WEATHER ACROSS SOUTH DAKOTA  *****

CITY           SKY/WX    TMP DP  RH WIND       PRES   REMARKS
SIOUX FALLS    MOSUNNY   85  57  38 NW7       30.11F
BROOKINGS      SUNNY     82  54  36 W9        30.12F
WATERTOWN      SUNNY     84  58  40 W10       30.09F
HURON          SUNNY     87  54  32 W9        30.09S
SISSETON         N/A     84  58  40 NW13      30.04S
ABERDEEN       SUNNY     87  51  28 NW15G25   30.08S
MITCHELL       SUNNY     90  57  32 CALM      30.10F
PIERRE         SUNNY     91  44  19 VRB5      30.10F
MOBRIDGE       SUNNY     88  53  30 N13       30.09S
RAPID CITY     SUNNY     87  45  23 W5        30.22S
$$

  *****  SOME WEATHER IN NEARBY STATES *****

CITY           SKY/WX    TMP DP  RH WIND       PRES   REMARKS
GLASGOW MT     SUNNY     86  42  21 W10G17    30.15F
GREAT FALLS MT SUNNY     87  36  16 SW6       30.20F
CHEYENNE WY    SUNNY     82  40  22 NE9       30.35F
SCOTTSBLUFF NE SUNNY     90  42  18 E7        30.22F
OMAHA NE       MOSUNNY   91  58  32 VRB7      30.12F HX  90
DES MOINES IA  MOSUNNY   87  56  34 W13       30.11S
DAVENPORT IA   SUNNY     84  68  58 W10       30.06F
CHICAGO IL     MOSUNNY   86  53  32 NW16G26   30.00F
EAU CLAIRE WI  SUNNY     83  56  39 W17G24    29.99S
LA CROSSE WI   SUNNY     85  56  37 W15       30.01F
$$

  *****  SOME NATIONAL WEATHER *****

CITY           SKY/WX    TMP DP  RH WIND       PRES   REMARKS
LA GUARDIA NY  CLOUDY    80  73  79 SW9       29.81R
RALEIGH NC     PTSUNNY   87  75  67 CALM      29.87S HX  96
ATLANTA GA     PTSUNNY   79  72  78 NW13      29.93R THUNDER
NEW ORLEANS LA LGT RAIN  80  72  76 N7        29.97F
OKLAHOMA CITY  PTSUNNY   89  73  59 NE14      30.08F HX  97
ALBUQUERQUE NM PTSUNNY   82  55  39 CALM      30.30S
SALT LAKE CITY MOSUNNY   93  23   8 N13       30.22F
LOS ANGELES CA MOSUNNY   74  65  73 W13       29.97F
BOISE ID       SUNNY     92  31  11 W7        30.15F
SEATTLE WA     SUNNY     94  47  20 NW9       30.05F HX  90
$$

*** WEATHER ACROSS MANITOBA...SASKATCHEWAN AND ONTARIO ***
                ***ONTARIO***

CITY           SKY/WX    TMP DP  RH WIND       PRES   REMARKS
GERALDTON      SHOWER    64  57  77 W7G17     29.72R FOG
THUNDER BAY    PTSUNNY   70  59  68 W12       29.80F
SIOUX LOOKOUT  PTSUNNY   63  59  88 W7        29.81S
TORONTO        MOSUNNY   82  55  39 W18G26    29.83S
BIG TROUT LK   CLOUDY    64  52  63 NW17G28   29.61S
PICKLE LAKE    PTSUNNY   70  50  49 NW14G29   29.70S
DRYDEN         CLOUDY    63  57  82 NW9       29.85S
KENORA         MOSUNNY   77  54  44 W17G24    29.85S
$$
                *** MANITOBA***

CITY           SKY/WX    TMP DP  RH WIND       PRES   REMARKS
BRANDON        MOSUNNY   75  50  41 NW24G32   30.02S
DAUPHIN        SUNNY     73  54  49 NW20G30   29.94S
ISLAND LAKE    PTSUNNY   66  55  68 W6        29.75S
PILOT MOUND      N/A     72  48  43 NW21G29     N/A
THE PAS        MOSUNNY   72  55  56 NW14      29.88F
THOMPSON       PTSUNNY   70  48  46 N9        29.77S
WINNIPEG       MOSUNNY   73  63  68 W10       29.90F
LYNN LAKE      MOSUNNY   72  45  37 NW9G17    29.83S
CHURCHILL      PTSUNNY   55  50  82 N13G18    29.68S
GILLAM         PTSUNNY   63  59  88 NW10      29.71R
$$
                ***SASKATCHEWAN***

CITY           SKY/WX    TMP DP  RH WIND       PRES   REMARKS
ESTEVAN        MOSUNNY   77  45  31 NW20G28   30.14F
KINDERSLEY     MOSUNNY   79  45  29 NW14      30.13F
LLOYDMINSTER   MOSUNNY   73  39  29 NW16G24   30.12F
PRINCE ALBERT  MOSUNNY   75  43  31 NW17G28   30.01S
REGINA         MOSUNNY   77  52  41 NW17G23   30.13S


USA.gov is the U.S. government's official web portal to all federal, state and local government web resources and services.